RH
14 14 13 13 14 15 15 18 22 21 20 22 23 27 63 76 72 58 41 44 33 34 40 49 46 40 41 40 41 34 12 13
17 18 16 14 12 12 15 16 16 21 27 25 20 19 22 36 62 67 37 33 36 39 60 80 57 41 45 46 48 43 20 11
25 28 29 31 29 19 14 17 24 27 22 29 30 29 25 22 25 41 59 43 41 42 54 87 67 44 46 50 52 50 37 16
31 24 20 21 26 30 26 28 25 26 29 25 29 29 29 29 25 24 42 48 44 38 50 87 71 51 47 51 52 56 49 33
27 24 22 24 25 29 41 37 33 35 36 27 25 27 28 30 30 29 25 48 44 42 55 61 86 58 53 52 52 57 58 42
32 31 28 46 38 40 44 50 47 40 38 25 24 25 26 25 27 31 29 32 43 39 44 58 99 84 64 54 59 58 63 56
36 37 43 52 62 61 53 60 58 61 43 25 24 22 23 25 27 33 31 25 36 44 58 54 60 48 53 69 62 67 69 64
35 39 51 51 60 60 61 66 54 54 41 25 28 20 22 23 27 31 37 30 39 44 48 45 48 61 60 54 50 64 69 64
39 28 47 51 55 62 72 69 51 52 48 36 29 23 21 23 27 34 36 33 31 40 50 57 59 78 83 51 62 68 73 59
32 27 37 47 50 63 76 72 67 54 41 36 33 29 24 27 29 42 40 31 31 40 59 63 67 69 60 64 72 71 72 44
34 34 43 46 42 55 75 89 59 61 44 45 41 39 34 34 45 50 48 35 33 38 56 77 75 100 99 100 78 73 73 42
37 38 47 48 54 69 81 79 73 65 53 57 51 48 46 48 53 55 55 48 41 45 85 87 97 99 97 95 68 71 53 40
39 22 39 43 59 73 69 86 72 79 69 68 67 61 54 62 63 64 58 58 53 54 75 91 97 78 93 79 75 69 32 42
22 38 56 51 55 63 69 78 100 99 81 86 82 81 78 73 72 85 72 72 66 76 78 79 77 99 86 79 72 49 35 48
58 90 72 69 62 58 68 89 95 98 100 98 97 92 93 99 89 100 99 97 82 79 77 74 75 99 89 80 73 44 62 45
96 96 80 74 76 66 71 97 98 96 99 99 98 100 93 100 99 99 100 98 94 91 83 76 79 83 81 81 51 45 50 37
97 93 91 88 81 76 78 95 98 100 99 98 97 98 100 99 100 95 94 96 95 93 93 95 70 74 83 66 43 39 36 35
97 92 90 91 84 76 82 93 98 98 99 95 100 99 100 100 92 99 100 99 97 94 99 100 83 87 83 59 42 40 36 32
94 86 98 91 84 84 89 97 98 99 100 100 98 99 99 99 100 99 99 100 100 100 99 96 100 99 77 49 45 42 35 32
Wind_Speed
22 23 24 26 29 31 33 34 39 41 46 51 52 53 58 54 51 45 40 43 39 38 38 38 35 32 29 25 22 21 23 24
17 20 23 27 31 34 36 37 38 44 47 49 50 54 58 57 56 52 54 51 41 39 38 37 37 34 31 27 24 23 23 24
13 16 19 23 32 37 38 38 42 42 52 53 51 48 47 55 58 56 56 52 45 40 39 37 38 35 34 30 27 25 23 25
14 18 23 27 29 35 40 39 46 49 46 56 55 50 49 48 52 60 56 56 47 41 40 38 39 37 35 33 30 27 25 26
21 25 27 31 32 34 35 39 40 42 43 50 57 54 52 48 40 44 57 58 52 43 40 42 42 40 37 35 32 30 28 28
21 24 29 33 35 35 33 36 38 42 38 43 53 53 48 41 41 40 51 58 51 48 50 56 39 32 40 39 35 31 30 31
23 26 30 32 31 38 39 30 27 29 35 38 43 49 44 40 40 41 41 51 53 50 47 49 41 40 54 41 37 33 33 34
23 28 25 32 30 34 36 28 24 25 31 37 39 44 43 43 42 44 43 46 48 47 45 44 46 43 48 60 38 35 34 35
26 32 30 33 33 33 30 23 21 26 28 31 33 40 43 43 44 44 38 39 41 44 42 37 29 47 60 39 41 34 36 33
28 30 31 32 32 32 28 22 19 19 20 26 31 36 43 41 44 37 43 40 45 48 46 39 29 33 39 39 36 34 34 32
27 29 31 28 30 29 29 21 18 11 15 18 23 25 30 36 35 35 36 42 42 46 42 46 50 35 29 37 36 34 33 31
26 30 33 29 29 27 23 16 16 12 16 20 24 25 30 35 34 37 36 32 40 39 39 48 46 29 31 33 35 33 32 29
29 33 32 31 30 26 26 17 23 14 15 20 25 28 33 32 33 33 36 35 36 37 44 43 42 33 35 36 34 31 29 29
36 32 29 28 28 28 26 25 14 16 19 21 23 21 22 27 25 26 31 32 36 39 34 35 40 34 37 36 32 30 25 23
25 24 24 23 27 28 26 22 20 16 9 24 24 25 21 22 23 19 23 25 34 39 34 37 34 34 34 30 30 27 25 24
20 21 20 21 24 25 26 20 15 19 17 16 19 26 28 13 20 20 22 26 26 26 26 34 35 33 31 30 28 26 25 24
20 21 21 18 20 18 19 17 15 10 7 10 14 26 27 24 19 19 31 28 27 31 35 41 43 39 31 30 29 26 23 22
17 16 15 13 14 13 14 14 11 11 9 14 9 6 11 23 27 27 30 32 38 45 47 42 47 37 33 30 29 26 24 21
10 12 10 10 10 10 11 14 16 13 9 8 8 7 5 10 10 15 21 27 28 33 43 41 37 34 33 31 30 26 22 20
Wind_Direction
266 268 269 268 266 262 258 253 253 252 250 247 246 242 241 238 238 234 236 237 239 247 247 245 243 245 246 251 262 269 262 253
259 268 273 273 269 266 264 261 254 247 243 243 244 244 242 241 242 241 233 238 238 246 244 244 238 242 245 249 254 264 265 255
268 277 282 288 287 281 273 265 260 251 243 239 241 240 242 242 239 237 234 239 238 246 244 244 237 239 243 246 253 261 269 259
287 296 298 288 288 287 279 273 265 256 250 238 239 241 239 239 240 237 234 236 238 241 242 242 235 235 240 245 248 255 267 265
309 307 313 309 304 300 289 275 265 253 255 242 236 239 241 243 248 249 238 235 235 235 240 246 235 231 236 241 246 251 260 267
322 326 327 324 317 309 295 283 263 251 252 251 236 238 241 244 242 245 240 234 234 234 243 237 224 228 241 238 241 251 260 267
337 334 330 325 320 314 304 286 267 260 249 244 240 235 236 242 236 241 239 234 233 231 235 250 247 247 250 248 244 246 255 264
336 333 324 335 321 314 304 279 265 262 252 246 241 231 231 238 235 241 239 236 233 231 239 245 245 246 230 242 231 242 252 261
328 332 323 328 323 319 309 279 275 271 260 251 242 229 227 236 235 239 240 235 228 228 233 243 245 241 227 206 229 240 251 260
327 330 330 319 325 326 319 274 279 276 262 243 236 233 230 233 229 230 236 229 225 225 230 229 204 188 197 223 234 241 251 259
334 331 327 322 322 327 322 287 275 277 254 237 235 232 228 229 231 234 240 231 229 226 229 225 244 252 220 232 238 244 252 254
331 336 332 325 329 326 319 280 273 260 252 247 237 226 220 220 225 224 238 235 225 226 224 225 241 232 232 235 236 246 252 248
318 314 319 327 326 318 320 290 277 281 249 253 238 233 227 227 229 230 233 238 227 224 226 236 242 223 234 231 238 248 251 243
303 302 308 317 318 318 310 298 273 257 244 237 236 233 228 227 227 231 223 216 220 225 226 243 227 233 225 230 237 245 241 243
295 307 310 314 317 315 312 312 309 307 211 225 227 227 232 218 213 204 198 209 215 215 215 230 222 243 230 232 240 238 238 245
293 296 312 321 317 317 319 316 307 306 328 221 230 251 216 246 213 216 217 214 216 217 223 216 231 240 233 236 239 236 235 244
292 298 302 316 309 317 323 312 339 300 350 312 279 252 237 251 242 253 240 234 242 236 227 223 229 240 229 229 232 232 237 243
289 294 306 312 307 322 339 353 354 5 334 315 333 286 244 231 240 255 231 235 240 235 228 222 221 230 227 227 228 229 232 241
296 311 321 324 329 347 358 13 15 12 359 328 309 314 256 277 261 299 223 222 208 203 227 203 223 222 224 225 224 224 228 236